This demonstration page uses our WeatherBlox Daily Observations layout. Learn more.

Left ArrowRight Arrow

39.08367, -84.50855

Hourly Observations for April 16, 2015

Temp ( °F °C ) Dew Point ( °F °C ) Humidity (%) Winds ( mph kmh ) Pressure ( in mb ) Visibility ( mi km ) Precip ( " mm )
12:53 am 00:53 Mostly Cloudy 58 14.4 46 7.8 65 65 VRB 6 9 30.16 1021 10 16 N/A
1:53 am 01:53 Mostly Cloudy 57 13.9 48 8.9 72 72 E 8 13 30.14 1021 10 16 N/A
2:53 am 02:53 Mostly Cloudy 57 13.9 49 9.4 74 74 ESE 3 6 30.14 1021 10 16 N/A
3:53 am 03:53 Cloudy 58 14.4 49 9.4 72 72 SE 5 7 30.13 1020 10 16 N/A
4:53 am 04:53 Cloudy 58 14.4 48 8.9 70 70 VRB 3 6 30.11 1020 10 16 N/A
5:53 am 05:53 Cloudy 58 14.4 48 8.9 70 70 ESE 3 6 30.12 1020 10 16 N/A
6:24 am 06:24 Cloudy 57 14 48 9 72 72 ESE 3 6 30.12 1020 10 16 N/A
6:53 am 06:53 Cloudy 58 14.4 48 8.9 70 70 SSE 6 9 30.13 1020 10 16 N/A
7:53 am 07:53 Cloudy 58 14.4 49 9.4 72 72 ESE 7 11 30.14 1021 10 16 N/A
8:53 am 08:53 Cloudy 56 13.3 51 10.6 84 84 ENE 3 6 30.15 1021 10 16 0.02 0.51
9:53 am 09:53 Cloudy 58 14.4 52 11.1 81 81 VRB 6 9 30.13 1020 10 16 N/A
10:53 am 10:53 Cloudy 60 15.6 54 12.2 80 80 SE 6 9 30.14 1021 10 16 N/A
11:53 am 11:53 Cloudy 63 17.2 55 12.8 76 76 N 3 6 30.14 1021 10 16 N/A
12:53 pm 12:53 Cloudy 65 18.3 57 13.9 76 76 NNE 6 9 30.11 1020 10 16 N/A
1:46 pm 13:46 Mostly Cloudy 68 20 59 15 73 73 VRB 7 11 30.06 1018 10 16 N/A
1:53 pm 13:53 Mostly Cloudy 70 21.1 61 16.1 73 73 S 9 15 30.08 1019 10 16 N/A
2:53 pm 14:53 Mostly Cloudy 72 22.2 59 15 64 64 WSW 10 17 30.07 1018 10 16 N/A
3:53 pm 15:53 Cloudy 74 23.3 57 13.9 56 56 SW 14 22 30.05 1018 10 16 N/A
4:53 pm 16:53 Cloudy 75 23.9 57 13.9 54 54 SW 9 15 30.04 1017 10 16 N/A
5:53 pm 17:53 Cloudy 70 21.1 58 14.4 66 66 S 10 17 30.05 1018 10 16 N/A
6:53 pm 18:53 Mostly Cloudy 70 21.1 57 13.9 64 64 SSE 13 20 30.04 1017 10 16 N/A
7:53 pm 19:53 Cloudy with Light Rain 64 17.8 62 16.7 93 93 N N/A 30.05 1018 9 14 0.03 0.76
8:53 pm 20:53 Cloudy 62 16.7 62 16.7 100 100 N N/A 30.07 1018 10 16 N/A
9:53 pm 21:53 Cloudy 63 17.2 62 16.7 97 97 N N/A 30.08 1019 10 16 N/A
10:22 pm 22:22 Cloudy with Rain 63 17 63 17 100 100 N N/A 30.06 1018 5 8 N/A
10:29 pm 22:29 Cloudy with Light Rain 63 17.2 63 17.2 100 100 ESE 3 6 30.06 1018 6 10 0.03 0.76
10:53 pm 22:53 Cloudy with Light Rain 62 16.7 62 16.7 100 100 N N/A 30.09 1019 8 13 0.03 0.76
11:35 pm 23:35 Cloudy with Light Rain 62 16.7 62 16.7 100 100 N N/A 30.06 1018 2 3 0.01 0.25
11:44 pm 23:44 Cloudy with Light Rain 63 17 63 17 100 100 N N/A 30.06 1018 3 5 N/A
11:53 pm 23:53 Mostly Cloudy with Light Rain 61 16.1 61 16.1 100 100 N N/A 30.09 1019 3 5 0.01 0.25

Powered by AerisWeather